Regional Weather Roundup
Issued by NWS

Home | Current Version | Previous Version | Graphics & Text | Print | Product List | Glossary Off
Versions: 1 2 3 4 5 6 7 8 9 10 11 12 13 14 15 16 17 18 19 20 21 22 23 24 25 26 27 28 29 30 31 32 33 34 35 36 37 38 39 40 41 42 43 44 45 46 47 48 49 50

000
ASUS43 KDTX 051701
RWRMI
MICHIGAN HOURLY REGIONAL WEATHER ROUNDUP
NATIONAL WEATHER SERVICE DETROIT/PONTIAC MI
100 PM EDT SUN JUL 05 2015

NOTE: "FAIR" INDICATES FEW OR NO CLOUDS BELOW 12,000 FEET WITH NO
SIGNIFICANT WEATHER AND/OR OBSTRUCTION TO VISIBILITY.

MIZ047>049-052>055-059>063-066>070-074>076-081>083-051800-
SOUTHEAST LOWER MICHIGAN

CITY           SKY/WX    TMP DP  RH WIND       PRES   REMARKS
ADRIAN         MOSUNNY   78  57  48 S6        30.13F
ALMA           SUNNY     78  58  49 S5        30.12S
ANN ARBOR      MOSUNNY   79  58  48 CALM      30.12F
BAD AXE        MOSUNNY   79  61  53 N3        30.12F
CARO           SUNNY     79  64  59 W3        30.11F
DETROIT CITY   SUNNY     79  57  46 S7        30.13S
DETROIT        MOSUNNY   80  57  45 VRB5      30.14R
FLINT          SUNNY     81  60  48 VRB7      30.12F
GROSSE ILE     MOSUNNY   75  59  57 S5        30.13R
HILLSDALE      MOSUNNY   78  60  52 S7        30.14S
HOWELL         SUNNY     78  57  47 SW6       30.12F

CITY           SKY/WX    TMP DP  RH WIND       PRES   REMARKS
JACKSON        SUNNY     79  60  52 S6        30.13S
LAMBERTVILLE   PTSUNNY   81  57  43 SE5       30.13S
LANSING        SUNNY     79  60  52 S8        30.12F
LAPEER         FAIR      79  55  43 W3        30.13F
MASON          SUNNY     76  60  56 CALM      30.12F
MONROE         MOSUNNY   77  59  54 S6        30.13R
MT. CLEMENS    MOSUNNY   79  61  53 SE8       30.11F
PONTIAC        MOSUNNY   79  56  45 S8        30.12F
PORT HOPE        N/A     68  63  84 NE3       30.11F
PORT HURON     MOSUNNY   79  63  57 S7        30.13S
TRI CITIES     SUNNY     79  61  53 SW8       30.12S
MIDLAND        FAIR      80  60  50 CALM      30.10F
TROY           SUNNY     80  55  40 W6        30.14S
SAGINAW HB     SUNNY     79  59  50 S6        30.11S
$$
MIZ043>046-050>051-056>058-064>065-071>073-077>080-051800-
SOUTHWEST LOWER MICHIGAN

CITY           SKY/WX    TMP DP  RH WIND       PRES   REMARKS
BATTLE CREEK   MOSUNNY   80  62  54 S5        30.13S
BENTON HARBOR  MOSUNNY   79  60  52 W6        30.10S
BIG RAPIDS     SUNNY     78  56  48 CALM      30.10F
COLDWATER      SUNNY     77  56  48 SE5       30.13S
FREMONT        FAIR      79  54  42 CALM      30.09F
HOLLAND        SUNNY     81  59  47 VRB5      30.11S
GRAND RAPIDS   MOSUNNY   80  59  48 VRB6      30.10F
IONIA          FAIR      80  60  51 W3        30.11R
KALAMAZOO      PTSUNNY   80  61  52 S8        30.11F
LUDINGTON      SUNNY     79  63  58 SW6       30.09F
MARSHALL       PTSUNNY   79  61  53 W5        30.12S
MOUNT PLEASANT SUNNY     79  60  51 CALM      30.11R
MUSKEGON       SUNNY     80  61  52 SW7       30.10S
SOUTH HAVEN    SUNNY     79  59  50 NW6       30.10S
$$
MIZ016>042-051800-
NORTHERN LOWER MICHIGAN

CITY           SKY/WX    TMP DP  RH WIND       PRES   REMARKS
ALPENA         SUNNY     78  59  51 E10       30.10S
BEAVER ISLAND  SUNNY     76  60  57 SW12      30.06S
BELLAIRE       SUNNY     80  60  51 S6        30.07F
CADILLAC       SUNNY     79  62  55 SW7       30.10F
CHARLEVOIX     SUNNY     80  62  53 S8        30.09F
FRANKFORT      SUNNY     78  56  47 SW6       30.08S
GAYLORD        MOSUNNY   78  62  57 S8        30.10F
GRAYLING       MOSUNNY   79  60  51 S3        30.11F
HARBOR SPRINGS SUNNY     78  63  59 SW3       30.07F
HOUGHTON LAKE  SUNNY     77  60  55 SW7       30.12S
MANISTEE       SUNNY     79  61  53 W7        30.09F
OSCODA         SUNNY     73  56  55 E7        30.12R
PELLSTON       SUNNY     79  62  56 SW8       30.07F
ROGERS CITY    SUNNY     78  61  55 SE5       30.10S
TRAVERSE CITY  MOSUNNY   82  62  50 VRB6      30.05F
$$
MIZ007>008-015-051800-
EASTERN UPPER MICHIGAN

CITY           SKY/WX    TMP DP  RH WIND       PRES   REMARKS
KINROSS        SUNNY     77  63  61 S9        30.07R
MACKINAC ISLAN SUNNY     74  62  65 NW3       30.07S
NEWBERRY       MOSUNNY   74  63  68 S12       30.05R
S. S. MARIE    PTSUNNY   76  62  62 SW8       30.05S
$$
MIZ004>006-011>014-085-051800-
CENTRAL UPPER MICHIGAN

CITY           SKY/WX    TMP DP  RH WIND       PRES   REMARKS
MANISTIQUE     SUNNY     65  57  77 S12       30.04S
ESCANABA       SUNNY     73  64  73 S16       30.01S
MENOMINEE      SUNNY     79  63  57 S10       30.01F
SAWYER-GWINN   MOSUNNY   79  63  57 SW16      30.00S
$$
MIZ001>003-009>011-084-051800-
WESTERN UPPER MICHIGAN

CITY           SKY/WX    TMP DP  RH WIND       PRES   REMARKS
IRON MOUNTAIN  PTSUNNY   81  62  52 SW8G23    30.00S
HOUGHTON       SUNNY     81  60  48 SW10      29.94F
COPPER HARBOR    N/A     58  53  84 CALM      29.95R
IRONWOOD       MOSUNNY   79  63  57 SW13G20   29.90F
$$

ABBREVIATIONS USED IN REMARKS
   TC - TEMPERATURE IN CELSIUS
  WCI - WIND CHILL INDEX
   HX - HEAT INDEX
  VSB - VISIBILITY



USA.gov is the U.S. government's official web portal to all federal, state and local government web resources and services.